Reflectivity
-20 -20 -20 -20 -20 -20 -20 -3 -18 -17 -20 -20 -20 -20 -20 3 -20 -20 13 16 17 9 -17 -20 -20 -16 0 15 14 13 13 1 4 12 -20 -20 -17 2
-20 -20 -20 -20 -20 -20 -20 -20 -19 5 13 -20 -20 -20 -20 -16 -3 -8 -19 -5 -6 13 -20 -20 -20 4 13 7 12 13 11 14 6 -14 4 -15 -17 24
-20 -20 -20 -20 -20 -20 -20 -20 -20 -18 9 -20 -20 1 -15 -20 2 -11 10 3 -1 8 -19 -14 -17 10 10 -7 9 10 13 11 9 5 -1 3 10 6
-20 -20 -20 -20 -20 -20 -20 -20 -20 -20 -20 -2 -1 13 15 -5 4 14 -19 7 -15 -10 1 5 -20 12 13 -10 11 10 0 11 -9 13 14 0 13 3
-20 -20 -20 -20 -20 -20 -20 -20 -20 -20 -5 -20 -20 -20 -7 1 6 6 -20 -20 -20 -20 -20 -20 -17 -2 -4 -20 -20 -8 9 -13 -12 -5 -15 11 4 -8
-20 -20 -20 -20 -20 -10 -10 -7 -19 -10 -5 -3 8 9 -17 1 3 -20 -15 -20 -20 -20 -20 -20 -20 -20 -20 -20 -20 -20 -20 -20 6 -20 14 -10 -13 3
-20 -20 -20 5 14 -0 -16 -14 9 2 5 2 13 10 -8 -13 3 -1 -20 -20 -20 -20 -20 -20 -20 -15 -20 -20 -20 -20 -20 -20 -20 -20 -20 -20 -20 -17
-20 -20 -20 6 9 11 11 12 9 -8 -2 -20 3 10 -13 7 10 1 -20 -20 -20 -20 -20 -20 -20 -20 -20 -20 -20 -20 -20 -20 -20 -20 -20 -20 -20 -20
-20 -2 -12 -6 3 -20 9 -16 -3 5 6 -16 7 -4 -18 -20 -20 -11 -19 -20 -20 -20 -20 -20 -20 -20 -20 -20 -20 -20 -20 -20 -20 -20 -20 -20 -20 -20
-12 4 2 14 2 -13 -20 -20 -20 -20 -20 -19 -20 -20 -20 -20 -6 -8 -20 -20 -20 -20 -20 -20 -20 -20 -20 -20 -20 -20 -20 -20 -20 -20 -20 -20 -20 -20
-20 -20 -20 -1 17 -20 -20 -20 -20 -20 -20 -20 -20 -20 -20 -20 -2 5 -19 -20 -18 -20 -20 -20 -20 -20 -20 -20 -20 -20 -20 -20 -20 -20 -20 -20 -20 -20
-20 -20 12 -0 -1 -20 -20 -20 -20 -20 -20 2 9 -12 -19 -3 -12 -20 -20 -4 1 -20 -20 -20 -20 -20 -20 -20 -20 -20 -20 -20 -20 -20 -20 -20 -20 -20
-20 -20 -0 -9 -20 -20 -20 -20 -20 -20 -20 -20 -20 -20 -20 -5 -18 -20 -0 8 -20 -20 -20 -20 -20 -20 -20 -8 2 6 -20 -20 -20 -20 -20 -20 -20 -20
-20 -20 -20 -20 -20 -20 -20 -20 -20 -20 -20 -20 -20 -20 -20 -20 -20 -20 -20 -20 -20 -20 -20 -20 -20 -16 -10 -20 -20 -20 -20 -20 -20 -20 -20 -20 -20 -20
-20 -20 -20 -20 -20 -20 -20 -20 -20 -20 -20 -20 -20 -20 -20 -20 -20 -20 -20 -20 -8 -6 7 9 8 -7 -20 -20 -20 -20 -20 -20 -20 -20 -20 -20 -20 -20
-20 -20 -20 -20 -20 -20 -20 -20 -20 -20 -20 -20 -20 -20 -20 -20 -20 -20 -20 -20 -20 -20 -20 -20 -20 -20 -20 -20 -20 -20 -20 -20 -20 -20 -20 -20 -20 -20
-20 -20 -20 -20 -20 -20 -20 -20 -20 -20 -20 -20 -20 -20 -20 -20 -20 -20 -20 -20 -20 -20 -20 -20 -20 -20 -20 -20 -20 -15 -20 -20 -20 -20 -20 -20 -20 -20
-20 -20 -20 -20 -20 -20 -20 -20 -20 -20 -20 -20 -20 -20 -20 -20 -20 -20 -20 -20 -20 -20 -20 -20 -20 -20 -20 -20 -20 -20 -20 -20 -20 -20 -20 -20 -20 -20
-20 6 -20 -20 -20 -20 -20 -20 -20 -20 -20 -20 -20 -20 -20 -20 -20 -20 -20 -20 -20 -20 -20 -20 -20 -20 -20 -20 -19 -20 -20 -20 -20 -20 -20 -20 -20 -20
-1 5 -20 -20 -20 -20 -20 -20 -20 -20 -20 -20 -20 -20 -20 -20 -20 -20 -20 -20 -20 -20 -20 -20 -20 -20 -20 -20 -20 -20 -20 -20 -20 -20 -20 -20 -20 -9
4 6 -16 -20 -15 -20 -20 -20 -20 -20 -20 -20 -20 -20 -20 -20 -20 -20 -20 -20 -20 -20 -20 -20 -20 -20 -20 -20 -20 -20 -20 -20 -20 -20 -20 -20 -20 -20
16 12 4 -14 7 -1 -20 -20 -20 -20 -20 -20 -20 -20 -20 -20 -20 -20 -20 -20 -20 -20 -20 -20 -20 -7 -18 -20 -20 -20 -20 -20 -20 -20 -20 -20 -20 -20
1 -16 -12 -18 -20 -20 -20 -20 -20 -20 -20 -20 -20 -20 -20 -20 -20 -20 -20 -20 -20 -20 -20 -20 -20 -17 -20 -20 -20 -20 -20 -20 -20 -20 -20 -20 -20 -20
Wind_Speed
2 2 3 3 3 2 2 2 2 3 3 3 2 2 2 3 2 2 3 6 6 7 5 8 10 8 11 15 15 13 14 15 16 8 5 11 14 22
2 3 2 1 2 2 3 3 3 4 5 1 1 3 3 3 3 3 4 4 5 4 4 5 9 9 11 11 12 13 16 14 14 17 16 5 4 13
1 2 4 2 3 2 2 2 2 2 4 1 1 1 2 4 3 3 2 2 2 1 3 4 5 5 8 11 11 13 13 14 15 15 18 20 18 14
2 2 5 2 3 2 2 3 2 1 1 2 1 2 1 1 2 2 2 2 1 3 2 2 4 6 7 9 11 11 13 13 14 15 17 17 17 14
1 1 2 1 2 2 1 2 2 1 1 2 2 1 1 2 1 1 2 2 2 6 6 5 5 6 6 8 9 10 12 11 12 12 13 13 13 13
1 0 1 1 2 3 2 3 2 3 2 2 2 2 1 1 1 2 1 0 1 2 3 5 6 8 4 7 8 8 9 8 9 9 9 9 9 9
2 2 2 2 3 3 2 2 2 2 2 2 2 2 2 2 3 2 1 1 1 2 1 2 2 3 3 5 5 6 7 6 5 5 5 6 7 7
4 2 1 2 2 1 1 1 2 2 2 2 2 3 3 3 2 2 3 2 2 1 0 1 2 1 1 2 3 4 5 5 5 3 3 3 4 4
4 4 3 2 2 3 6 7 7 6 3 1 2 3 2 4 5 3 3 2 2 1 0 1 2 1 1 2 5 2 3 3 5 4 3 3 3 3
4 4 4 3 3 4 4 4 4 4 4 2 2 3 2 3 3 4 4 3 2 1 0 0 1 1 2 2 5 2 2 2 3 4 4 4 3 5
3 4 4 4 5 6 5 4 3 2 3 6 8 8 8 7 6 4 2 3 1 1 0 1 0 1 1 2 3 5 4 3 2 4 4 3 3 5
3 3 7 5 7 9 5 5 4 4 3 2 3 5 5 2 6 3 3 2 2 1 2 2 1 1 2 1 1 2 2 5 5 5 4 4 3 2
3 3 3 9 8 8 8 5 5 5 6 3 3 2 2 2 2 2 3 3 3 2 3 3 2 1 1 1 1 1 1 2 2 2 4 4 3 2
4 3 4 9 10 10 7 7 7 6 3 3 2 2 2 2 1 2 2 2 1 2 2 3 3 2 2 1 1 2 1 1 1 1 2 2 5 5
4 6 10 10 10 9 10 9 7 4 3 3 3 2 2 2 3 3 2 2 1 1 1 1 2 3 2 2 1 1 2 1 1 1 1 1 1 1
9 5 7 8 8 6 5 5 4 4 4 3 2 2 3 2 2 2 2 2 1 1 2 4 3 4 2 2 2 2 3 2 1 1 1 2 3 3
6 3 2 2 3 3 3 3 3 3 3 3 2 3 3 3 2 2 1 1 2 2 1 2 3 3 3 4 3 5 4 3 3 2 1 3 3 4
4 3 4 4 5 5 5 4 3 5 4 3 3 3 3 3 3 2 2 3 3 2 2 1 2 0 1 5 12 5 3 3 3 2 2 2 3 3
7 6 5 6 6 6 5 4 4 5 4 4 4 4 4 3 5 3 3 3 2 2 2 2 2 3 1 3 2 15 3 2 1 1 3 4 5 6
7 7 7 6 6 6 5 5 4 4 5 5 4 4 4 4 3 3 4 4 3 2 2 1 2 3 5 4 2 2 12 3 3 3 2 3 7 17
7 7 6 7 7 6 6 5 5 5 5 4 5 5 5 4 4 4 4 10 8 3 4 4 6 11 3 2 2 3 3 14 8 4 2 2 4 4
7 8 7 6 6 6 6 5 5 5 5 5 5 5 5 5 5 5 5 5 4 4 4 2 3 3 3 5 6 5 4 3 8 14 16 12 3 4
7 7 6 6 6 6 5 6 6 5 6 6 6 6 5 4 5 5 4 5 3 4 4 2 3 4 4 5 8 6 8 6 2 5 8 16 20 22
Wind_Direction
259 273 249 260 226 211 203 177 266 287 264 185 159 162 152 124 132 97 66 62 47 51 29 38 45 23 24 28 38 41 34 28 29 19 288 245 242 221
204 215 217 234 265 248 221 229 202 251 270 138 168 146 165 134 120 90 82 65 50 36 23 32 47 24 40 43 42 43 43 33 29 39 34 46 220 217
262 257 266 230 234 222 242 246 225 203 270 98 85 64 125 146 146 114 121 99 62 345 22 23 50 29 53 49 49 52 49 43 37 45 45 49 68 85
296 266 259 241 235 209 190 240 241 187 235 193 157 142 115 119 148 143 109 66 20 349 85 59 51 47 62 51 49 50 54 51 53 51 55 55 58 66
304 278 259 184 200 219 206 202 200 176 198 164 163 121 117 171 154 97 113 92 47 32 43 31 50 53 60 67 59 49 50 48 51 49 59 63 62 62
52 28 258 237 235 217 218 226 197 186 187 174 168 171 151 158 132 166 178 44 74 10 30 36 45 37 57 71 50 43 46 41 46 51 55 65 69 74
221 207 234 221 219 208 185 221 225 209 189 170 164 173 169 169 190 146 142 104 2 10 328 18 19 20 19 30 30 28 34 39 39 49 58 66 69 71
208 195 125 100 95 158 147 147 219 223 212 182 179 205 182 161 138 155 129 122 236 26 49 301 30 17 355 5 326 37 57 38 45 49 65 72 78 83
182 179 181 121 95 77 73 60 56 44 41 232 207 209 187 188 136 134 153 149 163 222 128 295 30 332 329 338 341 64 77 66 48 60 85 99 96 98
166 170 173 174 172 141 108 84 57 39 34 41 82 128 117 163 136 151 151 120 86 41 354 189 17 299 340 334 329 172 90 20 53 49 80 91 101 94
174 175 181 186 211 180 144 142 115 56 57 97 105 112 120 138 126 99 99 97 187 213 345 113 32 316 5 335 346 45 39 23 59 72 72 72 69 85
181 190 208 199 210 203 160 167 180 187 140 99 67 57 53 104 125 98 137 147 154 13 196 137 162 35 24 10 338 8 7 35 31 34 20 9 17 65
187 190 203 216 208 207 163 173 197 166 188 157 130 136 101 103 100 108 149 143 141 203 206 121 155 129 113 310 316 349 3 1 16 7 359 340 329 46
192 192 210 215 217 209 179 194 194 156 152 159 167 193 188 178 171 123 132 121 90 163 165 136 135 145 143 19 263 340 327 282 293 288 344 331 353 337
179 200 208 214 216 212 200 194 188 148 161 181 205 200 182 147 121 118 83 76 43 12 166 180 135 136 136 164 198 266 332 306 235 265 251 226 309 309
197 208 205 200 203 199 201 203 153 169 176 182 187 184 131 121 146 145 150 148 109 267 226 170 147 138 151 222 168 249 201 266 247 216 239 256 241 224
152 136 159 153 177 183 178 188 178 189 188 177 160 173 176 155 163 137 136 121 174 211 186 157 178 194 217 179 233 220 242 225 236 238 242 282 247 232
154 165 183 181 189 197 201 195 186 204 188 179 174 176 178 175 169 153 146 175 192 198 203 182 144 39 298 242 219 241 222 229 212 225 209 263 272 247
196 193 191 190 200 199 191 182 193 202 174 182 185 192 182 178 205 175 169 170 209 209 207 164 133 133 160 243 281 205 206 194 178 237 211 217 267 278
202 199 204 199 200 199 192 196 201 184 191 192 186 184 185 173 167 184 185 180 184 197 204 174 169 177 172 209 234 273 213 185 176 229 233 235 258 281
200 203 197 197 199 196 198 195 194 194 188 177 192 186 188 167 198 198 199 218 214 178 221 228 218 218 144 68 324 249 230 238 228 207 217 226 271 271
201 206 203 196 195 195 194 194 190 202 195 192 197 190 189 175 191 194 195 200 213 191 217 193 163 156 160 194 239 256 270 235 235 258 261 223 193 273
200 201 193 194 195 192 191 191 199 200 200 197 192 192 170 178 201 200 195 201 183 194 187 199 195 192 204 208 230 244 251 261 231 253 256 255 259 261